Regional Weather Roundup
Issued by NWS Wakefield, VA

Home | Current Version | Previous Version | Text Only | Print | Product List | Glossary Off
Versions: 1 2 3 4 5 6 7 8 9 10 11 12 13 14 15 16 17 18 19 20 21 22 23 24 25 26 27

000
ASUS41 KAKQ 291915
RWRAKQ

REGIONAL WEATHER ROUNDUP
NATIONAL WEATHER SERVICE WAKEFIELD VA
300 PM EDT FRI JUL 29 2016

Note: "fair" indicates few or no clouds below 12,000 feet with no
significant weather and/or obstructions to visibility. * = Denotes
station may not report precipitation (e.g., rain,snow,etc.),
thunder or fog.

VAZ042-051-052>054-056-292000-
NORTHERN VIRGINIA

CITY           SKY/WX    TMP DP  RH WIND       PRES   REMARKS
WASH NATIONAL  PTSUNNY   89  68  49 VRB3      29.88R
DULLES         FAIR      88  68  51 NW9       29.89S
FORT BELVOIR   FAIR      89  67  49 NW9       29.88S
QUANTICO       PTSUNNY   86  69  56 S5        29.89
FREDERICKSBRG*   N/A     87  71  58 NW3       29.88S
STAFFORD*      FAIR      87  66  50 NW6       29.93S
WARRENTON      PTSUNNY   87  64  46 W5        29.90S
CULPEPER*      FAIR      86  71  60 N3        29.91S
MANASSAS*      PTSUNNY   88  68  51 N8        29.89S
LEESBURG*      PTSUNNY   88  72  58 SW5G17    29.90F
WINCHESTER     PTSUNNY   84  68  58 W5        29.92S
FRONT ROYAL*   FAIR      82  68  61 CALM      29.91S
LURAY*         NOT AVBL
$$

VAZ048-049-060>072-079>083-292000-
CENTRAL AND SOUTH CENTRAL VIRGINIA

CITY           SKY/WX    TMP DP  RH WIND       PRES   REMARKS
RICHMOND       PTSUNNY   85  71  63 N10       29.90S
CHESTERFIELD*  MOCLDY    86  63  45 N8        29.91S
PETERSBURG*    PTSUNNY   89  70  54 W3        29.91S
HANOVER        CLOUDY    83  70  64 NW7       29.92R
TAPPAHANNOCK*  PTSUNNY   85  69  59 N6        29.90R
QUINTON*       MOCLDY    84  73  70 NW3       29.88F
CHARLOTTSVILLE CLOUDY    88  65  46 N6        29.92S
GORDONSVILLE*  FAIR      84  70  61 CALM      29.91S
ORANGE*          N/A     88  68  51 CALM      29.93S
LOUISA*        FAIR      90  73  58 CALM      29.90F HX  98
BUMPASS*       FAIR      84  71  65 NE3       29.90F
FARMVILLE*     PTSUNNY   87  70  57 N5        29.92R
CREWE*         NOT AVBL
FORT PICKETT*  CLOUDY    86  74  66 N5        29.92S
CHASE CITY*    FAIR      86  69  56 CALM      29.92S
CLARKSVILLE*   FAIR      88  70  55 W3        29.92R
SOUTH HILL*    FAIR      85  72  64 NW5       29.97F
LAWRENCEVILLE* CLOUDY    85  73  66 N6        29.92S
EMPORIA*       PTSUNNY   88  72  58 NW7       29.92R
$$

VAZ088>098-292000-
SOUTHEAST VIRGINIA

CITY           SKY/WX    TMP DP  RH WIND       PRES   REMARKS
NORFOLK        CLOUDY    83  74  74 N10       29.87R
VIRGINIA BEACH PTSUNNY   92  73  53 N9        29.86R HX 100
NORFOLK NAVAL  PTSUNNY   86  73  65 N7        29.89R
WEST POINT*    FAIR      86  69  56 CALM      29.89S
SALUDA*        MOCLDY    85  74  70 W7        29.88R
NEWPORT NEWS   PTSUNNY   87  75  67 NW6       29.88R HX  96
LANGLEY AFB    CLOUDY    85  74  71 N9        29.87R
FORT EUSTIS    PTSUNNY   88  74  61 N9        29.86R HX  97
WILLIAMSBURG*  FAIR      90  75  62 NW5       29.89S HX 100
HR EXEC AP*    MOCLDY    86  73  66 NW7       29.89S
FRANKLIN*      CLOUDY    85  73  66 N6        29.89S
US460-WAKEFLD  FAIR      86  72  62 VRB7      29.89S
$$

VAZ020-022-025-037-045-292000-
WEST CENTRAL AND SOUTHWEST VIRGINIA

CITY           SKY/WX    TMP DP  RH WIND       PRES   REMARKS
STAUNTON*      PTSUNNY   81  67  62 CALM      29.97S
WAYNESBORO*    MOCLDY    81  67  63 CALM      29.97F
HOT SPRINGS VA NOT AVBL
LYNCHBURG      FAIR      85  68  56 VRB6      29.96S
DANVILLE       FAIR      87  68  52 MISG      29.94S
SOUTH BOSTON*  MOCLDY   N/A N/A N/A N7        29.92S
MARTINSVILLE   PTSUNNY   87  66  49 N3        29.98F
ROANOKE        FAIR      86  65  49 NW6       29.98F
BLACKSBURG     PTSUNNY   79  66  63 W6        30.06S
DUBLIN*        CLOUDY    81  67  62 NW5       30.04S
MARION*        PTSUNNY   79  67  68 W6        30.08F
HILLSVILLE*    PTSUNNY   78  66  66 CALM      30.06S
RICHLANDS*     MOCLDY    77  69  76 SW8       30.06F
WISE*          PTSUNNY   79  61  53 W9        30.07F
ABINGDON*      CLOUDY    81  68  63 W9        30.04F
$$

MDZ021>025-VAZ099-100-292000-
SOUTHERN MARYLAND AND THE DELMARVA PENINSULA

CITY           SKY/WX    TMP DP  RH WIND       PRES   REMARKS
PATUXENT RIVER MOSUNNY   86  69  56 N9        29.87S
BAY BRIDGE APT SUNNY     84  70  61 CALM      29.87S
LEONARDTOWN      N/A     82  68  61 W5        29.90S
DOVER          MOSUNNY   85  76  75 N9        29.84R
GEORGETOWN     PTSUNNY   85  70  60 NW6       29.86R
EASTON         PTSUNNY   86  75  70 N7        29.90S HX  95
CAMBRIDGE      MOSUNNY   82  70  65 NW8       29.86S
SALISBURY      CLOUDY    82  72  69 MISG      29.85S
OCEAN CITY       N/A    N/A N/A N/A MISG      29.85R
WALLOPS ISLAND PTSUNNY   86  72  62 NW8       29.86R
ACCOMACK*      CLOUDY    84  72  65 N5        29.86S
$$

NCZ012>017-030>032-292000-
NORTH CENTRAL AND EASTERN NORTH CAROLINA

CITY           SKY/WX    TMP DP  RH WIND       PRES   REMARKS
ROANOKE RAPIDS MOCLDY    84  73  70 N8        29.90S
RALEIGH        PTSUNNY   88  68  51 W5        29.93R
ELIZABETH CITY CLOUDY    87  73  62 NW8       29.87R
AHOSKIE*       MOSUNNY   85  73  68 NW5       29.89S
EDENTON*       PTSUNNY   91  74  57 N10       29.88S HX 100
CURRITUCK*     CLOUDY    88  73  60 CALM      29.87S HX  96
KILL DEVIL HLS PTSUNNY   93  72  49 W6        29.86R HX 100
MANTEO           N/A     89  76  64 N8        29.87S HX  99
CAPE HATTERAS  SUNNY     86  78  77 SW12      29.89R HX  98
TARBORO*       FAIR      91  74  58 W5        29.90S HX 100
GOLDSBORO      SUNNY     94  69  44 W8G18     29.89R HX  99
WASHINGTON     SUNNY     89  74  60 W5        29.88S HX  97
GREENVILLE     MOSUNNY   91  73  55 W8        29.91R HX 100
NEW BERN       MOSUNNY   93  73  52 W7        29.89S HX 102
WILMINGTON     MOSUNNY   95  73  48 W13       29.90S HX 104
$$

VAZ048-292000-
ELSEWHERE

CITY           SKY/WX    TMP DP  RH WIND       PRES   REMARKS
HARRISBURG PA  MOSUNNY   86  69  56 CALM      29.86S
BALTIMORE      MOSUNNY   90  68  48 SW5       29.86S
ANNAPOLIS      MOSUNNY   85  74  69 SE7       29.86S
ANDREWS AFB    FAIR      85  68  57 VRB7      29.87S
PHILADELPHIA   PTSUNNY   86  68  54 NE6       29.84R
GREENSBORO     PTSUNNY   88  66  48 W6        29.95F
ROCKY MOUNT    PTSUNNY   91  72  53 NW7       29.90R HX  98
$$

VAZ100-292000-
MARINE

STATION/POSITION TIME  TEMP    WIND        PRES    WAVE   SWELL
                       AIR SEA DIR/SP/G            HT/PER HT/PER
                 (UTC) (F)     (DEG/KT/KT) (MB)    (FT/S) (FT/S)
BRANDYWINE LGT   1800   79     340/ 10/ 11   N/A
CAPE MAY NJ      1800   82 74  330/  8/ 11 1009.9S
LEWES DE         1800   79 75  330/  9/ 10 1010.5S
OCEAN-CITY-INLET 1800   80 75   70/  4/  7 1010.9S
WACHAPREAGUE VA  1800   86 86  320/  1/  9 1010.8S
THOMAS POINT MD  1800   80 83   70/  7/  8 1012.7R
GOOSES REEF MD   1900   82 86   30/  4/  8 1012.8R   1/ 2
COVE POINT MD    1800   79     350/  7/  9 1012.2R
SOLOMONS ISLAND  1800   82 85  360/  6/ 12   N/A
BISHOPS HEAD MD  1800   82      30/  3/  6 1011.4R
PINEY POINT MD   1800          350/  8/  9   N/A
POTOMAC MD       1900   82 85   20/  8/ 10 1010.7R   1/ 3
CAMBRIDGE MD     1800   82 87   40/  3/  4 1010.4R
LEWISETTA VA     1800   82 86  330/  7/  9 1011.2R
RAPPAHANNOCK LGT 1800          330/ 14/ 16 1011.8R
STINGRAY PT      1900   82 87  310/  8/ 10 1012.1R   1/ 2
YORK RVR RNG VA  1800   82     340/  8/ 10 1010.9R
YORKTOWN VA      1800   82 85  310/ 12/ 13 1011.1R
JAMESTOWN VA     1900   84 89  310/  8/ 12   N/A     0
DOMINION TERM VA 1800   83     310/ 12/ 15 1011.2S
KIPTOPEKE VA     1800      81  340/ 12/ 14   N/A
CHES BAY BRIDGE  1800   81 84  350/  6/  8 1011.0F
CAPE HENRY VA    1800   82     340/  8/  9   N/A
WILLOUBY STN VA  1800   82      50/  7/  8   N/A
CAPE HENRY BUOY  1812      78                N/A     2/ 6
1ST LANDING BUOY 1900   81 81   10/ 14/ 17 1011.1R   1/ 4
CAPE CHARLES BUO 1826      77                N/A     1/13
OFFSHORE WE BUOY 1821      82                N/A     2/ 6
64NM E OF VA BCH 1850   82 84  300/  8/  8 1011.2R   3/ 6   3/ 6
DUCK PIER NC     1800   79 68   30/ 10/ 12 1010.7S
44100 DUCK FRF   1805      81                N/A     2/ 4
44056 DUCK FRF   1811      74                N/A     1/13
OREGON INLET NC  1800   87 84  200/ 14/ 16 1011.0F
HATTERAS NC      1800   87 84  210/ 10/ 16 1011.6F
DIAMOND SHLS NC  1850   86 85  220/ 19/ 21 1011.6F   4/ 6   2/ 9
CAPE LOOKOUT NC  1900   88     210/ 14/ 19 1012.0R
$$




USA.gov is the U.S. government's official web portal to all federal, state and local government web resources and services.